Regional Weather Roundup
Issued by NWS Spokane, WA

Home | Current Version | Previous Version | Text Only | Print | Product List | Glossary On
Versions: 1 2 3 4 5 6 7 8 9 10 11 12 13 14 15 16 17 18 19 20 21 22 23 24 25 26 27 28 29 30 31 32 33 34 35 36 37 38 39 40 41 42 43 44 45 46 47 48 49 50
000
NZUS01 KOTX 210025
RWROTX

Eastern Washington/Northern Idaho Roundup
National Weather Service, Spokane WA
500 PM PDT FRI APR 20 2018

Note: "fair" indicated few or no clouds below 12,000 feet with no
significant weather and/or obstructions to visibility.

...Northeast Washington and Northern Idaho Panhandle...

CITY           SKY/WX    TMP DP  RH WIND       PRES   REMARKS
Spokane Intl   MOSUNNY   61  31  32 SW13      30.14S
Spokane Downto SUNNY     64  34  32 VRB7      30.13F
Coeur d Alene  SUNNY     62  35  36 W14       30.14S
Deer Park      MOSUNNY   62  33  33 S13G21    30.13F
Bonners Ferry  FAIR      61  32  33 S8        30.08F

...Southeast Washington and southern Idaho Panhandle...

CITY           SKY/WX    TMP DP  RH WIND       PRES   REMARKS
Walla Walla    SUNNY     67  32  27 SW8       30.12F
Pullman/Moscow SUNNY     60  39  45 SW6       30.16F
Lewiston       SUNNY     68  34  28 N5        30.12F
Lowell           N/A     66  36  32 VRB7      30.08F
Grangeville    FAIR      59  34  38 CALM      30.13F

...Columbia Basin...

CITY           SKY/WX    TMP DP  RH WIND       PRES   REMARKS
Ephrata        SUNNY     68  32  26 S12       30.09F
Moses Lake     SUNNY     68  29  23 S9        30.10F
Pasco          SUNNY     72  28  19 W6        30.10F
Richland       CLEAR     73  28  18 S5        30.09F
Hermiston      SUNNY     71  32  23 SW3       30.10F
Pendleton      SUNNY     67  30  25 W8        30.12F

...East Slopes Cascades...

CITY           SKY/WX    TMP DP  RH WIND       PRES   REMARKS
The Dalles     CLOUDY    68  31  25 NW12      30.11S
Yakima         MOSUNNY   70  29  21 E5        30.09F
Ellensburg     MOSUNNY   65  29  25 CALM      30.10S
Wenatchee      MOSUNNY   65  31  28 E7        30.07F
Winthrop       MOCLDY    65  30  27 S13       30.05F
Omak           MOSUNNY   67  35  30 S13       30.06F
Sunnyside      CLEAR     67  39  36 E7        30.08F

...Southern British Columbia...

CITY           SKY/WX    TMP DP  RH WIND       PRES   REMARKS
Penticton      PTSUNNY   66  34  30 S12G20    30.01F
Castlegar      PTSUNNY   64  27  24 S8        30.06F
Cranbrook      MOSUNNY   59  28  31 SW14G21   30.05S
Osoyoos          N/A     64  34  32 S10         N/A
Creston          N/A     64  30  27 S7          N/A

...Western Montana...

CITY           SKY/WX    TMP DP  RH WIND       PRES   REMARKS
Kalispell      CLEAR     62  29  28 SE15      30.07F
Missoula       SUNNY     64  27  24 S6        30.07F

...Neighboring Cities...

CITY           SKY/WX    TMP DP  RH WIND       PRES   REMARKS
Seattle        CLOUDY    59  32  36 W3        30.17F
Portland       PTSUNNY   66  37  34 CALM      30.17F
Boise          SUNNY     68  27  21 W13G21    30.08R
Great Falls    SUNNY     64  16  15 W9        30.06S
Calgary        MOSUNNY   52  21  30 SE10G20   30.00F



USA.gov is the U.S. government's official web portal to all federal, state and local government web resources and services.